Location: Harwich
(41.7160°N, 69.9939°W)
Time: 01:58:40
(UTC+02:00)

AO-73 - Pass Details

Date: 22 September 2024
Orbit: 548 x 615 km, 97.7° (Epoch: 10 October)

Event Time Altitude Azimuth Distance (km) Brightness Sun altitude
Rises 10:03:49 0° 8° (N) 2,776 ? -26.8°
Reaches altitude 10° 10:06:00 10° 5° (N) 1,864 ? -26.4°
Enters shadow 10:08:03 28° 356° (N) 1,067 ? -26.1°
